• In Deutschland
  • Länderverzeichnis
  • Für 7 Tage
  • Wassertemperatur
  • Satellitenkarten
  • Wetterkarte
  • Widgets
  • user-avatar
    Anmelden

    Stündliche Wetter Ilki

    Heute, 15 August, Mittwoch

    Zeit Temperatur Niederschläge Wind Luftdruck Luftfeuchtigkeit
    00:00 +17°C° 0 mm 2 m/S 745 mmHg 90%
    01:00 +16°C° 0 mm 2 m/S 745 mmHg 91%
    02:00 +16°C° 0 mm 2 m/S 745 mmHg 91%
    03:00 +16°C° 0 mm 2 m/S 745 mmHg 91%
    04:00 +16°C° 0 mm 2 m/S 746 mmHg 91%
    05:00 +17°C° 0 mm 3 m/S 746 mmHg 86%
    06:00 +18°C° 0 mm 3 m/S 746 mmHg 82%
    07:00 +20°C° 0 mm 4 m/S 746 mmHg 77%
    08:00 +21°C° 0 mm 4 m/S 746 mmHg 73%
    09:00 +22°C° 0 mm 4 m/S 747 mmHg 69%
    10:00 +23°C° 0 mm 5 m/S 747 mmHg 66%
    11:00 +23°C° 0,2 mm 5 m/S 747 mmHg 64%
    12:00 +25°C° 0,2 mm 5 m/S 747 mmHg 63%
    13:00 +25°C° 0,2 mm 5 m/S 747 mmHg 62%
    14:00 +25°C° 0,2 mm 5 m/S 747 mmHg 64%
    15:00 +23°C° 0,2 mm 5 m/S 747 mmHg 67%
    16:00 +23°C° 0,2 mm 5 m/S 747 mmHg 69%
    17:00 +21°C° 0 mm 4 m/S 748 mmHg 75%
    18:00 +20°C° 0 mm 3 m/S 748 mmHg 81%
    19:00 +19°C° 0 mm 3 m/S 749 mmHg 87%
    20:00 +18°C° 0 mm 2 m/S 749 mmHg 90%
    21:00 +17°C° 0 mm 2 m/S 749 mmHg 93%
    22:00 +16°C° 0 mm 2 m/S 750 mmHg 95%
    23:00 +16°C° 0 mm 2 m/S 750 mmHg 96%

    Morgen, 16 August, Donnerstag

    Zeit Temperatur Niederschläge Wind Luftdruck Luftfeuchtigkeit
    00:00 +15°C° 0 mm 2 m/S 750 mmHg 96%
    01:00 +15°C° 0 mm 2 m/S 750 mmHg 96%
    02:00 +15°C° 0 mm 2 m/S 750 mmHg 97%
    03:00 +14°C° 0 mm 2 m/S 751 mmHg 97%
    04:00 +14°C° 0 mm 2 m/S 751 mmHg 97%
    05:00 +15°C° 0 mm 2 m/S 751 mmHg 93%
    06:00 +17°C° 0 mm 2 m/S 751 mmHg 89%
    07:00 +18°C° 0 mm 2 m/S 751 mmHg 84%
    08:00 +19°C° 0 mm 2 m/S 752 mmHg 77%
    09:00 +21°C° 0 mm 2 m/S 752 mmHg 70%
    10:00 +23°C° 0 mm 2 m/S 752 mmHg 63%
    11:00 +23°C° 0 mm 2 m/S 752 mmHg 61%
    12:00 +24°C° 0 mm 2 m/S 751 mmHg 60%
    13:00 +24°C° 0 mm 2 m/S 751 mmHg 58%
    14:00 +24°C° 0 mm 2 m/S 751 mmHg 58%
    15:00 +24°C° 0 mm 2 m/S 751 mmHg 58%
    16:00 +25°C° 0 mm 2 m/S 751 mmHg 58%
    17:00 +23°C° 0 mm 1 m/S 751 mmHg 64%
    18:00 +21°C° 0 mm 1 m/S 751 mmHg 71%
    19:00 +20°C° 0 mm 1 m/S 751 mmHg 77%
    20:00 +19°C° 0 mm 1 m/S 751 mmHg 79%
    21:00 +18°C° 0 mm 1 m/S 751 mmHg 82%
    22:00 +18°C° 0 mm 1 m/S 751 mmHg 85%
    23:00 +16°C° 0 mm 1 m/S 751 mmHg 86%

    übermorgen, 17 August, Freitag

    Zeit Temperatur Niederschläge Wind Luftdruck Luftfeuchtigkeit
    00:00 +16°C° 0 mm 1 m/S 751 mmHg 87%
    01:00 +16°C° 0 mm 1 m/S 751 mmHg 88%
    02:00 +15°C° 0 mm 1 m/S 751 mmHg 89%
    03:00 +15°C° 0 mm 1 m/S 751 mmHg 90%
    04:00 +15°C° 0 mm 1 m/S 751 mmHg 91%
    05:00 +16°C° 0 mm 1 m/S 752 mmHg 87%
    06:00 +19°C° 0 mm 1 m/S 752 mmHg 83%
    07:00 +20°C° 0 mm 1 m/S 752 mmHg 78%
    08:00 +22°C° 0 mm 1 m/S 752 mmHg 73%
    09:00 +23°C° 0 mm 1 m/S 752 mmHg 67%
    10:00 +25°C° 0 mm 2 m/S 751 mmHg 62%
    11:00 +25°C° 0 mm 2 m/S 751 mmHg 59%
    12:00 +26°C° 0 mm 2 m/S 751 mmHg 57%
    13:00 +27°C° 0 mm 2 m/S 751 mmHg 54%
    14:00 +27°C° 0 mm 2 m/S 750 mmHg 55%
    15:00 +27°C° 0 mm 2 m/S 750 mmHg 55%
    16:00 +26°C° 0 mm 2 m/S 750 mmHg 56%
    17:00 +25°C° 0 mm 2 m/S 750 mmHg 62%
    18:00 +23°C° 0 mm 2 m/S 750 mmHg 68%
    19:00 +20°C° 0 mm 2 m/S 750 mmHg 75%
    20:00 +20°C° 0 mm 2 m/S 750 mmHg 78%
    21:00 +19°C° 0 mm 2 m/S 750 mmHg 80%
    22:00 +18°C° 0 mm 2 m/S 750 mmHg 83%
    23:00 +18°C° 0 mm 2 m/S 750 mmHg 84%

    18 August, Samstag

    Zeit Temperatur Niederschläge Wind Luftdruck Luftfeuchtigkeit
    00:00 +17°C° 0 mm 2 m/S 750 mmHg 86%
    01:00 +17°C° 0 mm 2 m/S 750 mmHg 87%
    02:00 +17°C° 0 mm 2 m/S 750 mmHg 86%
    03:00 +17°C° 0 mm 2 m/S 750 mmHg 85%
    04:00 +17°C° 0 mm 2 m/S 750 mmHg 85%
    05:00 +18°C° 0 mm 2 m/S 750 mmHg 81%
    06:00 +19°C° 0 mm 2 m/S 751 mmHg 77%
    07:00 +20°C° 0 mm 2 m/S 751 mmHg 74%
    08:00 +23°C° 0 mm 2 m/S 751 mmHg 69%
    09:00 +24°C° 0 mm 2 m/S 751 mmHg 65%
    10:00 +25°C° 0 mm 2 m/S 751 mmHg 60%
    11:00 +26°C° 0 mm 2 m/S 751 mmHg 57%
    12:00 +27°C° 0 mm 2 m/S 751 mmHg 53%
    13:00 +28°C° 0 mm 2 m/S 750 mmHg 50%
    14:00 +27°C° 0,2 mm 2 m/S 750 mmHg 55%
    15:00 +27°C° 0,2 mm 2 m/S 750 mmHg 60%
    16:00 +26°C° 0,2 mm 2 m/S 750 mmHg 65%
    17:00 +24°C° 0,2 mm 2 m/S 751 mmHg 72%
    18:00 +23°C° 0,2 mm 2 m/S 751 mmHg 79%
    19:00 +20°C° 0,2 mm 2 m/S 751 mmHg 86%
    20:00 +19°C° 0 mm 2 m/S 751 mmHg 89%
    21:00 +18°C° 0 mm 3 m/S 751 mmHg 92%
    22:00 +17°C° 0 mm 3 m/S 752 mmHg 95%
    23:00 +16°C° 0 mm 2 m/S 752 mmHg 94%

    19 August, Sonntag

    Zeit Temperatur Niederschläge Wind Luftdruck Luftfeuchtigkeit
    00:00 +16°C° 0 mm 2 m/S 752 mmHg 93%
    01:00 +15°C° 0 mm 2 m/S 752 mmHg 92%
    02:00 +14°C° 0 mm 2 m/S 752 mmHg 91%
    03:00 +14°C° 0 mm 2 m/S 752 mmHg 89%
    04:00 +13°C° 0 mm 1 m/S 752 mmHg 88%
    05:00 +15°C° 0 mm 1 m/S 752 mmHg 83%
    06:00 +16°C° 0 mm 2 m/S 752 mmHg 78%
    07:00 +18°C° 0 mm 2 m/S 753 mmHg 73%
    08:00 +19°C° 0 mm 2 m/S 753 mmHg 68%
    09:00 +21°C° 0 mm 3 m/S 753 mmHg 62%
    10:00 +22°C° 0 mm 3 m/S 753 mmHg 57%
    11:00 +23°C° 0 mm 4 m/S 753 mmHg 57%
    12:00 +23°C° 0 mm 4 m/S 753 mmHg 56%
    13:00 +25°C° 0 mm 5 m/S 752 mmHg 56%
    14:00 +23°C° 0,1 mm 4 m/S 752 mmHg 60%
    15:00 +23°C° 0,1 mm 4 m/S 752 mmHg 64%
    16:00 +22°C° 0,1 mm 4 m/S 752 mmHg 68%
    17:00 +21°C° 0 mm 3 m/S 752 mmHg 74%
    18:00 +19°C° 0 mm 3 m/S 752 mmHg 81%
    19:00 +18°C° 0 mm 2 m/S 753 mmHg 88%
    20:00 +17°C° 0 mm 2 m/S 753 mmHg 90%
    21:00 +17°C° 0 mm 2 m/S 753 mmHg 92%
    22:00 +16°C° 0 mm 1 m/S 753 mmHg 94%
    23:00 +16°C° 0 mm 1 m/S 753 mmHg 94%

    20 August, Montag

    Zeit Temperatur Niederschläge Wind Luftdruck Luftfeuchtigkeit
    00:00 +15°C° 0 mm 1 m/S 753 mmHg 94%
    01:00 +15°C° 0 mm 1 m/S 753 mmHg 94%
    02:00 +14°C° 0 mm 1 m/S 753 mmHg 94%
    03:00 +14°C° 0 mm 1 m/S 753 mmHg 94%
    04:00 +13°C° 0 mm 1 m/S 753 mmHg 94%
    05:00 +14°C° 0 mm 1 m/S 753 mmHg 88%
    06:00 +15°C° 0 mm 1 m/S 753 mmHg 83%
    07:00 +18°C° 0 mm 1 m/S 754 mmHg 78%
    08:00 +19°C° 0 mm 1 m/S 754 mmHg 71%
    09:00 +19°C° 0 mm 2 m/S 754 mmHg 64%
    10:00 +21°C° 0 mm 2 m/S 754 mmHg 57%
    11:00 +21°C° 0 mm 2 m/S 754 mmHg 53%
    12:00 +23°C° 0 mm 2 m/S 753 mmHg 50%
    13:00 +24°C° 0 mm 2 m/S 753 mmHg 46%
    14:00 +24°C° 0 mm 2 m/S 753 mmHg 47%
    15:00 +24°C° 0 mm 2 m/S 753 mmHg 48%
    16:00 +24°C° 0 mm 2 m/S 753 mmHg 49%
    17:00 +21°C° 0 mm 2 m/S 753 mmHg 57%
    18:00 +20°C° 0 mm 1 m/S 753 mmHg 64%
    19:00 +18°C° 0 mm 1 m/S 753 mmHg 71%
    20:00 +18°C° 0 mm 1 m/S 753 mmHg 74%
    21:00 +16°C° 0 mm 1 m/S 753 mmHg 77%
    22:00 +14°C° 0 mm 0 m/S 753 mmHg 80%
    23:00 +15°C° 0 mm 1 m/S 753 mmHg 80%
    Mehr zeigen